FW0633 Weather Reports


time (UTC)temp
C
wind
direction
speed
KPH
gust
KPH
rain 1hr
cm
rain 24hr
cm
rain mn
cm
humidity
%
barometer
mb
20260507113005 6 262 0.0 1.6 0.00 0.00 0.00 62 1038.0
20260507111506 6 282 0.0 1.6 0.00 0.00 0.00 61 1038.0
20260507110004 6 274 0.0 1.6 0.00 0.00 0.00 60 1038.0
20260507104504 7 250 0.0 1.6 0.00 0.00 0.00 60 1038.0
20260507103004 7 280 0.0 1.6 0.00 0.00 0.00 60 1038.0
20260507101504 7 260 0.0 1.6 0.00 0.00 0.00 59 1037.8
20260507100004 7 275 0.0 1.6 0.00 0.00 0.00 58 1037.8
20260507094504 7 274 0.0 3.2 0.00 0.00 0.00 58 1037.8
20260507093025 7 253 0.0 1.6 0.00 0.00 0.00 58 1037.8
20260507091503 7 278 0.0 1.6 0.00 0.00 0.00 58 1037.8
20260507090005 8 0 0.0 0.0 0.00 0.00 0.00 57 1037.8
20260507084504 8 255 0.0 1.6 0.00 0.00 0.00 56 1037.8
20260507083025 10 248 0.0 1.6 0.00 0.00 0.00 52 1037.9
20260507081504 10 0 0.0 0.0 0.00 0.00 0.00 50 1037.8
20260507080025 11 239 0.0 1.6 0.00 0.00 0.00 48 1037.7
20260507074503 11 230 0.0 1.6 0.00 0.00 0.00 47 1037.6
20260507073004 12 227 0.0 3.2 0.00 0.00 0.00 46 1037.5
20260507071504 12 240 0.0 4.8 0.00 0.00 0.00 45 1037.5
20260507070007 12 213 0.0 4.8 0.00 0.00 0.00 45 1037.5
20260507064505 12 218 0.0 6.4 0.00 0.00 0.00 45 1037.5
20260507063003 12 230 0.0 4.8 0.00 0.00 0.00 44 1037.4
20260507061503 13 212 1.6 11.3 0.00 0.00 0.00 43 1037.2
20260507060004 13 224 0.0 4.8 0.00 0.00 0.00 43 1037.2
20260507054525 13 212 1.6 4.8 0.00 0.00 0.00 43 1037.1
20260507053004 13 224 1.6 6.4 0.00 0.00 0.00 41 1037.1
20260507051503 13 224 1.6 4.8 0.00 0.00 0.00 41 1036.9
20260507050003 13 224 0.0 4.8 0.00 0.00 0.00 41 1036.8
20260507044503 14 223 0.0 3.2 0.00 0.00 0.00 41 1036.6
20260507043003 14 224 1.6 4.8 0.00 0.00 0.00 40 1036.6
20260507041527 14 229 1.6 4.8 0.00 0.00 0.00 40 1036.4
20260507040007 15 228 1.6 9.7 0.00 0.00 0.00 38 1036.2
20260507034506 15 234 1.6 6.4 0.00 0.00 0.00 38 1036.0
20260507033006 16 242 1.6 8.0 0.00 0.00 0.00 37 1035.8
20260507031505 16 241 3.2 12.9 0.00 0.00 0.00 36 1035.6
20260507030027 16 226 3.2 9.7 0.00 0.00 0.00 36 1035.5
20260507024505 17 234 3.2 8.0 0.00 0.00 0.00 35 1035.2
20260507023006 17 234 1.6 9.7 0.00 0.00 0.00 34 1035.0
20260507021505 17 267 3.2 9.7 0.00 0.00 0.00 33 1034.6
20260507020006 18 272 3.2 9.7 0.00 0.00 0.00 32 1034.4
20260507014506 19 282 3.2 12.9 0.00 0.00 0.00 30 1034.3
20260507013006 20 287 4.8 11.3 0.00 0.00 0.00 28 1034.1
20260507011505 22 280 3.2 9.7 0.00 0.00 0.00 26 1034.1
20260507010005 23 297 3.2 11.3 0.00 0.00 0.00 25 1034.0
20260507004505 23 325 3.2 9.7 0.00 0.00 0.00 24 1034.0
20260507003005 23 325 3.2 9.7 0.00 0.00 0.00 24 1033.9
20260507001505 23 264 1.6 11.3 0.00 0.00 0.00 23 1033.9
20260507000005 23 305 3.2 8.0 0.00 0.00 0.00 24 1033.8
20260506234505 23 343 3.2 9.7 0.00 0.00 0.00 25 1033.7
20260506233006 22 47 4.8 16.1 0.00 0.00 0.00 23 1033.8
20260506231505 23 218 1.6 6.4 0.00 0.00 0.00 23 1034.0
20260506230005 22 214 1.6 6.4 0.00 0.00 0.00 24 1033.9
20260506224505 22 267 1.6 6.4 0.00 0.00 0.00 25 1034.1
20260506223005 22 15 3.2 11.3 0.00 0.00 0.00 26 1034.2
20260506221526 23 315 3.2 12.9 0.00 0.00 0.00 23 1034.4
20260506220006 22 16 6.4 20.9 0.00 0.00 0.00 24 1034.5
20260506214505 23 294 3.2 9.7 0.00 0.00 0.00 23 1034.8
20260506213005 22 4 4.8 16.1 0.00 0.00 0.00 23 1034.9
20260506211505 22 326 3.2 11.3 0.00 0.00 0.00 23 1035.1
20260506210005 22 250 1.6 6.4 0.00 0.00 0.00 24 1035.3
20260506204505 21 349 3.2 11.3 0.00 0.00 0.00 25 1035.4
20260506203005 21 92 4.8 11.3 0.00 0.00 0.00 27 1035.5
20260506201504 20 107 3.2 9.7 0.00 0.00 0.00 27 1035.6
20260506200005 20 39 6.4 14.5 0.00 0.00 0.00 27 1035.7
20260506194506 20 44 3.2 12.9 0.00 0.00 0.00 27 1035.8
20260506193005 20 355 4.8 14.5 0.00 0.00 0.00 25 1036.0
20260506191505 20 7 6.4 14.5 0.00 0.00 0.00 27 1036.0
20260506190005 19 53 4.8 12.9 0.00 0.00 0.00 28 1036.1
20260506184504 20 353 4.8 12.9 0.00 0.00 0.00 26 1036.3
20260506183005 20 297 3.2 8.0 0.00 0.00 0.00 26 1036.4
20260506181505 19 358 4.8 9.7 0.00 0.00 0.00 27 1036.5
20260506180006 19 360 3.2 14.5 0.00 0.00 0.00 27 1036.5
20260506174506 18 321 3.2 9.7 0.00 0.00 0.00 28 1036.4
20260506173006 18 354 3.2 9.7 0.00 0.00 0.00 30 1036.4
20260506171504 17 63 4.8 11.3 0.00 0.00 0.00 32 1036.2
20260506170004 17 356 3.2 11.3 0.00 0.00 0.00 32 1036.2
20260506164504 16 346 3.2 8.0 0.00 0.00 0.00 33 1036.3
20260506163005 16 67 3.2 22.5 0.00 0.00 0.00 35 1036.2
20260506161505 16 169 1.6 4.8 0.00 0.00 0.00 36 1036.1
20260506160005 15 90 1.6 8.0 0.00 0.00 0.00 38 1036.1
20260506154504 15 31 1.6 6.4 0.00 0.00 0.00 39 1036.0
20260506153025 14 92 3.2 8.0 0.00 0.00 0.00 40 1036.0
20260506151504 14 96 1.6 6.4 0.00 0.00 0.00 40 1036.0
20260506150004 13 94 1.6 4.8 0.00 0.00 0.00 43 1035.9
20260506144504 13 96 1.6 4.8 0.00 0.00 0.00 43 1035.9
20260506143004 12 19 0.0 3.2 0.00 0.00 0.00 46 1035.8
20260506141526 10 258 0.0 1.6 0.00 0.00 0.00 53 1035.7
20260506140005 8 259 0.0 1.6 0.00 0.00 0.00 58 1035.5
20260506134504 7 259 0.0 1.6 0.00 0.00 0.00 62 1035.5
20260506133004 5 280 0.0 1.6 0.00 0.00 0.00 65 1035.2
20260506131504 4 271 0.0 1.6 0.00 0.00 0.00 68 1035.1
20260506130004 3 273 0.0 1.6 0.00 0.00 0.00 70 1034.9
20260506124504 3 244 0.0 1.6 0.00 0.00 0.00 71 1034.9
20260506123004 3 283 0.0 1.6 0.00 0.00 0.00 71 1034.6
20260506121504 3 279 0.0 1.6 0.00 0.00 0.00 71 1034.4
20260506120005 2 255 0.0 1.6 0.00 0.00 0.00 71 1034.5
20260506114504 3 246 0.0 1.6 0.00 0.00 0.00 70 1034.5